Time,TemperatureF,DewpointF,PressureIn,WindDirection,WindDirectionDegrees,WindSpeedMPH,WindSpeedGustMPH,Humidity,HourlyPrecipIn,Conditions,Clouds,dailyrainin,SolarRadiationWatts/m^2,SoftwareType,DateUTC
2013-01-26 00:00:00,24.5,21.7,30.19,WSW,238,4.0,7.0,89,0.00,,---,0.00,0.00,VWS V14.00,2013-01-26 05:00:00,
2013-01-26 00:01:00,24.5,21.7,30.18,West,261,3.0,4.0,89,0.00,,---,0.00,0.00,VWS V14.00,2013-01-26 05:01:00,
2013-01-26 00:05:00,24.4,21.6,30.19,SW,217,3.0,6.0,89,0.00,,---,0.00,0.00,VWS V14.00,2013-01-26 05:05:00,
2013-01-26 00:10:00,24.4,21.6,30.19,SW,229,2.0,7.0,89,0.00,,---,0.00,0.00,VWS V14.00,2013-01-26 05:10:00,
2013-01-26 00:15:00,24.4,21.6,30.19,WSW,248,2.0,6.0,89,0.00,,---,0.00,0.00,VWS V14.00,2013-01-26 05:15:00,
2013-01-26 00:20:00,24.3,21.5,30.19,West,261,4.0,8.0,89,0.00,,---,0.00,0.00,VWS V14.00,2013-01-26 05:20:00,
2013-01-26 00:21:00,24.3,21.5,30.19,WSW,246,1.0,4.0,89,0.00,,---,0.00,0.00,VWS V14.00,2013-01-26 05:21:00,
2013-01-26 00:26:00,24.2,21.4,30.19,SW,216,4.0,5.0,89,0.00,,---,0.00,0.00,VWS V14.00,2013-01-26 05:26:00,
2013-01-26 00:31:00,24.2,21.4,30.19,SW,229,5.0,6.0,89,0.00,,---,0.00,0.00,VWS V14.00,2013-01-26 05:31:00,
2013-01-26 00:36:00,24.1,21.6,30.19,WSW,258,6.0,6.0,90,0.00,,---,0.00,0.00,VWS V14.00,2013-01-26 05:36:00,
2013-01-26 00:41:00,24.1,21.6,30.19,SW,236,5.0,9.0,90,0.00,,---,0.00,0.00,VWS V14.00,2013-01-26 05:41:00,
2013-01-26 00:46:00,24.1,21.6,30.19,West,265,5.0,6.0,90,0.00,,---,0.00,0.00,VWS V14.00,2013-01-26 05:46:00,
2013-01-26 00:51:00,24.1,21.6,30.19,West,259,4.0,7.0,90,0.00,,---,0.00,0.00,VWS V14.00,2013-01-26 05:51:00,
2013-01-26 00:56:00,24.1,21.6,30.19,West,262,1.0,6.0,90,0.00,,---,0.00,0.00,VWS V14.00,2013-01-26 05:56:00,
2013-01-26 01:01:00,24.1,21.6,30.19,West,269,4.0,6.0,90,0.00,,---,0.00,0.00,VWS V14.00,2013-01-26 06:01:00,
2013-01-26 01:06:00,24.0,21.5,30.19,WSW,252,2.0,7.0,90,0.00,,---,0.00,0.00,VWS V14.00,2013-01-26 06:06:00,
2013-01-26 01:11:00,23.9,21.4,30.19,WSW,256,2.0,2.0,90,0.00,,---,0.00,0.00,VWS V14.00,2013-01-26 06:11:00,
2013-01-26 01:16:00,23.9,21.4,30.19,West,278,5.0,5.0,90,0.00,,---,0.00,0.00,VWS V14.00,2013-01-26 06:16:00,
2013-01-26 01:21:00,23.9,21.4,30.19,WSW,250,4.0,4.0,90,0.00,,---,0.00,0.00,VWS V14.00,2013-01-26 06:21:00,
2013-01-26 01:26:00,23.9,21.4,30.19,WSW,250,0.0,5.0,90,0.00,,---,0.00,0.00,VWS V14.00,2013-01-26 06:26:00,
2013-01-26 01:31:00,23.9,21.4,30.19,WSW,251,4.0,6.0,90,0.00,,---,0.00,0.00,VWS V14.00,2013-01-26 06:31:00,
2013-01-26 01:36:00,24.0,21.5,30.19,SW,233,5.0,6.0,90,0.00,,---,0.00,0.00,VWS V14.00,2013-01-26 06:36:00,
2013-01-26 01:41:00,24.0,21.5,30.20,SW,219,7.0,7.0,90,0.00,,---,0.00,0.00,VWS V14.00,2013-01-26 06:41:00,
2013-01-26 01:46:00,24.0,21.5,30.19,WSW,238,4.0,7.0,90,0.00,,---,0.00,0.00,VWS V14.00,2013-01-26 06:46:00,
2013-01-26 01:51:00,24.0,21.5,30.20,West,261,4.0,5.0,90,0.00,,---,0.00,0.00,VWS V14.00,2013-01-26 06:51:00,
2013-01-26 01:56:00,24.0,21.5,30.20,West,259,2.0,7.0,90,0.00,,---,0.00,0.00,VWS V14.00,2013-01-26 06:56:00,
2013-01-26 02:01:00,24.1,21.6,30.20,West,274,4.0,9.0,90,0.00,,---,0.00,0.00,VWS V14.00,2013-01-26 07:01:00,
2013-01-26 02:06:00,24.3,21.8,30.20,West,279,2.0,5.0,90,0.00,,---,0.00,0.00,VWS V14.00,2013-01-26 07:06:00,
2013-01-26 02:11:00,24.2,21.7,30.20,West,265,8.0,8.0,90,0.00,,---,0.00,0.00,VWS V14.00,2013-01-26 07:11:00,
2013-01-26 02:16:00,24.3,21.8,30.20,West,270,2.0,5.0,90,0.00,,---,0.00,0.00,VWS V14.00,2013-01-26 07:16:00,
2013-01-26 02:21:00,24.3,21.8,30.21,WSW,250,5.0,8.0,90,0.00,,---,0.00,0.00,VWS V14.00,2013-01-26 07:21:00,
2013-01-26 02:26:00,24.3,21.8,30.21,WNW,290,6.0,7.0,90,0.00,,---,0.00,0.00,VWS V14.00,2013-01-26 07:26:00,
2013-01-26 02:31:00,24.3,21.8,30.21,SW,236,7.0,7.0,90,0.00,,---,0.00,0.00,VWS V14.00,2013-01-26 07:31:00,
2013-01-26 02:36:00,24.3,21.8,30.20,WSW,258,8.0,10.0,90,0.00,,---,0.00,0.00,VWS V14.00,2013-01-26 07:36:00,
2013-01-26 02:41:00,24.2,21.7,30.21,WSW,256,1.0,8.0,90,0.00,,---,0.00,0.00,VWS V14.00,2013-01-26 07:41:00,
2013-01-26 02:46:00,24.1,21.6,30.21,West,275,4.0,9.0,90,0.00,,---,0.00,0.00,VWS V14.00,2013-01-26 07:46:00,
2013-01-26 02:51:00,24.1,21.6,30.21,West,273,5.0,5.0,90,0.00,,---,0.00,0.00,VWS V14.00,2013-01-26 07:51:00,
2013-01-26 02:56:00,24.1,21.6,30.21,WNW,292,5.0,7.0,90,0.00,,---,0.00,0.00,VWS V14.00,2013-01-26 07:56:00,
2013-01-26 03:01:00,24.0,21.5,30.21,WNW,288,6.0,6.0,90,0.00,,---,0.00,0.00,VWS V14.00,2013-01-26 08:01:00,
2013-01-26 03:06:00,23.9,21.4,30.21,West,277,1.0,6.0,90,0.00,,---,0.00,0.00,VWS V14.00,2013-01-26 08:06:00,
2013-01-26 03:11:00,23.8,21.3,30.22,WNW,289,4.0,5.0,90,0.00,,---,0.00,0.00,VWS V14.00,2013-01-26 08:11:00,
2013-01-26 03:16:00,23.7,21.2,30.22,WSW,257,7.0,9.0,90,0.00,,---,0.00,0.00,VWS V14.00,2013-01-26 08:16:00,
2013-01-26 03:21:00,23.6,21.1,30.21,WSW,255,4.0,6.0,90,0.00,,---,0.00,0.00,VWS V14.00,2013-01-26 08:21:00,
2013-01-26 03:26:00,23.6,21.1,30.21,West,281,2.0,5.0,90,0.00,,---,0.00,0.00,VWS V14.00,2013-01-26 08:26:00,
2013-01-26 03:31:00,23.6,21.1,30.21,West,261,4.0,6.0,90,0.00,,---,0.00,0.00,VWS V14.00,2013-01-26 08:31:00,
2013-01-26 03:36:00,23.6,21.1,30.21,West,265,5.0,6.0,90,0.00,,---,0.00,0.00,VWS V14.00,2013-01-26 08:36:00,
2013-01-26 03:41:00,23.5,21.0,30.21,SW,232,5.0,6.0,90,0.00,,---,0.00,0.00,VWS V14.00,2013-01-26 08:41:00,
2013-01-26 03:46:00,23.4,20.9,30.21,West,263,1.0,6.0,90,0.00,,---,0.00,0.00,VWS V14.00,2013-01-26 08:46:00,
2013-01-26 03:51:00,23.3,20.8,30.21,West,278,4.0,6.0,90,0.00,,---,0.00,0.00,VWS V14.00,2013-01-26 08:51:00,
2013-01-26 03:56:00,23.2,20.7,30.21,West,273,1.0,5.0,90,0.00,,---,0.00,0.00,VWS V14.00,2013-01-26 08:56:00,
2013-01-26 04:01:00,23.2,20.7,30.21,West,281,1.0,5.0,90,0.00,,---,0.00,0.00,VWS V14.00,2013-01-26 09:01:00,
2013-01-26 04:06:00,23.1,20.6,30.21,West,275,5.0,6.0,90,0.00,,---,0.00,0.00,VWS V14.00,2013-01-26 09:06:00,
2013-01-26 04:11:00,23.0,20.5,30.21,West,264,5.0,6.0,90,0.00,,---,0.00,0.00,VWS V14.00,2013-01-26 09:11:00,
2013-01-26 04:16:00,23.0,20.5,30.21,WNW,282,4.0,6.0,90,0.00,,---,0.00,0.00,VWS V14.00,2013-01-26 09:16:00,
2013-01-26 04:21:00,22.9,20.4,30.21,West,262,6.0,6.0,90,0.00,,---,0.00,0.00,VWS V14.00,2013-01-26 09:21:00,
2013-01-26 04:26:00,22.8,20.3,30.22,West,267,5.0,6.0,90,0.00,,---,0.00,0.00,VWS V14.00,2013-01-26 09:26:00,
2013-01-26 04:31:00,22.8,20.3,30.22,NW,304,3.0,6.0,90,0.00,,---,0.00,0.00,VWS V14.00,2013-01-26 09:31:00,
2013-01-26 04:36:00,22.7,20.2,30.22,WNW,282,5.0,5.0,90,0.00,,---,0.00,0.00,VWS V14.00,2013-01-26 09:36:00,
2013-01-26 04:41:00,22.6,20.1,30.22,West,267,4.0,5.0,90,0.00,,---,0.00,0.00,VWS V14.00,2013-01-26 09:41:00,
2013-01-26 04:46:00,22.5,20.0,30.22,West,281,4.0,5.0,90,0.00,,---,0.00,0.00,VWS V14.00,2013-01-26 09:46:00,
2013-01-26 04:51:00,22.5,20.0,30.22,West,277,4.0,6.0,90,0.00,,---,0.00,0.00,VWS V14.00,2013-01-26 09:51:00,
2013-01-26 04:56:00,22.5,20.0,30.22,WSW,251,3.0,7.0,90,0.00,,---,0.00,0.00,VWS V14.00,2013-01-26 09:56:00,
2013-01-26 05:01:00,22.5,20.0,30.22,WNW,300,2.0,5.0,90,0.00,,---,0.00,0.00,VWS V14.00,2013-01-26 10:01:00,
2013-01-26 05:06:00,22.5,20.0,30.22,WNW,300,4.0,5.0,90,0.00,,---,0.00,0.00,VWS V14.00,2013-01-26 10:06:00,
2013-01-26 05:11:00,22.5,20.0,30.22,WNW,298,3.0,5.0,90,0.00,,---,0.00,0.00,VWS V14.00,2013-01-26 10:11:00,
2013-01-26 05:16:00,22.3,19.8,30.22,WNW,296,6.0,6.0,90,0.00,,---,0.00,0.00,VWS V14.00,2013-01-26 10:16:00,
2013-01-26 05:21:00,22.1,19.6,30.22,NW,306,4.0,6.0,90,0.00,,---,0.00,0.00,VWS V14.00,2013-01-26 10:21:00,
2013-01-26 05:26:00,22.1,19.6,30.22,NW,304,3.0,5.0,90,0.00,,---,0.00,0.00,VWS V14.00,2013-01-26 10:26:00,
2013-01-26 05:31:00,22.0,19.5,30.22,WNW,300,5.0,5.0,90,0.00,,---,0.00,0.00,VWS V14.00,2013-01-26 10:31:00,
2013-01-26 05:36:00,21.9,19.4,30.23,NW,304,2.0,6.0,90,0.00,,---,0.00,0.00,VWS V14.00,2013-01-26 10:36:00,
2013-01-26 05:41:00,21.8,19.3,30.23,NW,314,6.0,6.0,90,0.00,,---,0.00,0.00,VWS V14.00,2013-01-26 10:41:00,
2013-01-26 05:46:00,21.8,19.3,30.23,NW,317,2.0,4.0,90,0.00,,---,0.00,0.00,VWS V14.00,2013-01-26 10:46:00,
2013-01-26 05:51:00,21.7,19.2,30.23,NW,312,2.0,5.0,90,0.00,,---,0.00,0.00,VWS V14.00,2013-01-26 10:51:00,
2013-01-26 05:56:00,21.6,19.4,30.24,NW,315,4.0,6.0,91,0.00,,---,0.00,0.00,VWS V14.00,2013-01-26 10:56:00,
2013-01-26 06:02:00,21.5,19.0,30.24,WNW,298,4.0,5.0,90,0.00,,---,0.00,0.00,VWS V14.00,2013-01-26 11:02:00,
2013-01-26 06:07:00,21.5,19.0,30.24,NW,310,3.0,4.0,90,0.00,,---,0.00,0.00,VWS V14.00,2013-01-26 11:07:00,
2013-01-26 06:12:00,21.5,19.0,30.24,WNW,300,4.0,5.0,90,0.00,,---,0.00,0.00,VWS V14.00,2013-01-26 11:12:00,
2013-01-26 06:17:00,21.5,19.0,30.24,WNW,300,4.0,6.0,90,0.00,,---,0.00,0.00,VWS V14.00,2013-01-26 11:17:00,
2013-01-26 06:22:00,21.6,19.1,30.24,NW,308,5.0,6.0,90,0.00,,---,0.00,0.00,VWS V14.00,2013-01-26 11:22:00,
2013-01-26 06:27:00,21.5,19.0,30.25,WNW,302,4.0,6.0,90,0.00,,---,0.00,0.00,VWS V14.00,2013-01-26 11:27:00,
2013-01-26 06:32:00,21.5,19.0,30.25,NW,315,5.0,5.0,90,0.00,,---,0.00,0.00,VWS V14.00,2013-01-26 11:32:00,
2013-01-26 06:37:00,21.5,19.0,30.25,NW,317,5.0,5.0,90,0.00,,---,0.00,0.00,VWS V14.00,2013-01-26 11:37:00,
2013-01-26 06:42:00,21.6,19.1,30.25,NW,309,5.0,6.0,90,0.00,,---,0.00,0.00,VWS V14.00,2013-01-26 11:42:00,
2013-01-26 06:47:00,21.5,19.0,30.26,NW,309,6.0,6.0,90,0.00,,---,0.00,0.00,VWS V14.00,2013-01-26 11:47:00,
2013-01-26 06:52:00,21.4,18.9,30.26,NW,319,5.0,6.0,90,0.00,,---,0.00,0.00,VWS V14.00,2013-01-26 11:52:00,
2013-01-26 06:57:00,21.5,19.0,30.26,NW,323,5.0,7.0,90,0.00,,---,0.00,0.00,VWS V14.00,2013-01-26 11:57:00,
2013-01-26 07:02:00,21.7,19.5,30.26,NW,320,6.0,6.0,91,0.00,,---,0.00,0.00,VWS V14.00,2013-01-26 12:02:00,
2013-01-26 07:07:00,21.9,19.7,30.27,NNW,327,5.0,6.0,91,0.00,,---,0.00,0.00,VWS V14.00,2013-01-26 12:07:00,
2013-01-26 07:12:00,22.0,19.8,30.28,NW,309,6.0,6.0,91,0.00,,---,0.00,0.00,VWS V14.00,2013-01-26 12:12:00,
2013-01-26 07:17:00,22.1,19.9,30.28,NW,315,4.0,9.0,91,0.00,,---,0.00,0.00,VWS V14.00,2013-01-26 12:17:00,
2013-01-26 07:22:00,22.1,19.6,30.28,NW,318,5.0,7.0,90,0.00,,---,0.00,0.00,VWS V14.00,2013-01-26 12:22:00,
2013-01-26 07:27:00,22.1,19.6,30.28,NW,323,6.0,8.0,90,0.00,,---,0.00,0.00,VWS V14.00,2013-01-26 12:27:00,
2013-01-26 07:32:00,22.1,19.6,30.29,NW,319,3.0,7.0,90,0.00,,---,0.00,0.00,VWS V14.00,2013-01-26 12:32:00,
2013-01-26 07:37:00,22.1,19.6,30.29,NW,322,5.0,6.0,90,0.00,,---,0.00,0.00,VWS V14.00,2013-01-26 12:37:00,
2013-01-26 07:42:00,22.0,19.3,30.29,NW,324,4.0,7.0,89,0.00,,---,0.00,0.00,VWS V14.00,2013-01-26 12:42:00,
2013-01-26 07:47:00,22.0,19.3,30.29,NW,325,5.0,6.0,89,0.00,,---,0.00,0.00,VWS V14.00,2013-01-26 12:47:00,
2013-01-26 07:52:00,21.9,19.2,30.30,NW,316,2.0,7.0,89,0.00,,---,0.00,5.00,VWS V14.00,2013-01-26 12:52:00,
2013-01-26 07:57:00,21.9,18.9,30.30,NW,322,7.0,7.0,88,0.00,,---,0.00,9.00,VWS V14.00,2013-01-26 12:57:00,
2013-01-26 08:02:00,21.9,18.9,30.30,NNW,329,4.0,7.0,88,0.00,,---,0.00,12.00,VWS V14.00,2013-01-26 13:02:00,
2013-01-26 08:07:00,21.9,18.9,30.30,NW,309,5.0,7.0,88,0.00,,---,0.00,18.00,VWS V14.00,2013-01-26 13:07:00,
2013-01-26 08:12:00,21.9,18.6,30.31,NW,313,4.0,6.0,87,0.00,,---,0.00,21.00,VWS V14.00,2013-01-26 13:12:00,
2013-01-26 08:17:00,21.7,18.4,30.31,WNW,302,4.0,5.0,87,0.00,,---,0.00,30.00,VWS V14.00,2013-01-26 13:17:00,
2013-01-26 08:22:00,21.6,18.3,30.31,NW,311,4.0,5.0,87,0.00,,---,0.00,39.00,VWS V14.00,2013-01-26 13:22:00,
2013-01-26 08:27:00,21.5,18.2,30.31,WNW,302,2.0,4.0,87,0.00,,---,0.00,53.00,VWS V14.00,2013-01-26 13:27:00,
2013-01-26 08:32:00,21.5,18.5,30.32,WNW,300,4.0,6.0,88,0.00,,---,0.00,53.00,VWS V14.00,2013-01-26 13:32:00,
2013-01-26 08:37:00,21.6,18.6,30.32,WNW,302,4.0,5.0,88,0.00,,---,0.00,84.00,VWS V14.00,2013-01-26 13:37:00,
2013-01-26 08:42:00,21.7,18.7,30.32,NW,315,3.0,5.0,88,0.00,,---,0.00,93.00,VWS V14.00,2013-01-26 13:42:00,
2013-01-26 08:47:00,21.9,18.9,30.33,WNW,299,4.0,6.0,88,0.00,,---,0.00,72.00,VWS V14.00,2013-01-26 13:47:00,
2013-01-26 08:52:00,22.1,18.8,30.33,NW,307,4.0,6.0,87,0.00,,---,0.00,88.00,VWS V14.00,2013-01-26 13:52:00,
2013-01-26 08:57:00,22.3,19.0,30.33,NW,308,5.0,8.0,87,0.00,,---,0.00,69.00,VWS V14.00,2013-01-26 13:57:00,
2013-01-26 09:02:00,22.6,19.3,30.33,WNW,300,5.0,9.0,87,0.00,,---,0.00,100.00,VWS V14.00,2013-01-26 14:02:00,
2013-01-26 09:07:00,22.9,19.4,30.34,NW,306,6.0,7.0,86,0.00,,---,0.00,125.00,VWS V14.00,2013-01-26 14:07:00,
2013-01-26 09:12:00,23.1,19.5,30.34,NW,309,4.0,7.0,86,0.00,,---,0.00,134.00,VWS V14.00,2013-01-26 14:12:00,
2013-01-26 09:17:00,23.3,19.5,30.34,NW,319,9.0,11.0,85,0.00,,---,0.00,77.00,VWS V14.00,2013-01-26 14:17:00,
2013-01-26 09:22:00,23.6,19.8,30.34,NW,319,6.0,7.0,85,0.00,,---,0.00,125.00,VWS V14.00,2013-01-26 14:22:00,
2013-01-26 09:27:00,23.9,19.8,30.34,NW,317,5.0,10.0,84,0.00,,---,0.00,135.00,VWS V14.00,2013-01-26 14:27:00,
2013-01-26 09:32:00,24.1,19.4,30.34,NW,321,6.0,9.0,82,0.00,,---,0.00,130.00,VWS V14.00,2013-01-26 14:32:00,
2013-01-26 09:37:00,24.4,19.4,30.35,NNW,342,5.0,12.0,81,0.00,,---,0.00,158.00,VWS V14.00,2013-01-26 14:37:00,
2013-01-26 09:42:00,24.6,19.6,30.35,NW,324,4.0,9.0,81,0.00,,---,0.00,174.00,VWS V14.00,2013-01-26 14:42:00,
2013-01-26 09:47:00,24.8,19.5,30.35,NW,313,6.0,7.0,80,0.00,,---,0.00,158.00,VWS V14.00,2013-01-26 14:47:00,
2013-01-26 09:52:00,25.1,19.5,30.35,NNW,335,4.0,7.0,79,0.00,,---,0.00,107.00,VWS V14.00,2013-01-26 14:52:00,
2013-01-26 09:57:00,25.1,19.2,30.35,NW,309,7.0,8.0,78,0.00,,---,0.00,137.00,VWS V14.00,2013-01-26 14:57:00,
2013-01-26 10:02:00,25.3,19.4,30.35,NW,323,2.0,4.0,78,0.00,,---,0.00,135.00,VWS V14.00,2013-01-26 15:02:00,
2013-01-26 10:07:00,25.6,19.4,30.36,NNW,331,4.0,5.0,77,0.00,,---,0.00,209.00,VWS V14.00,2013-01-26 15:07:00,
2013-01-26 10:12:00,25.9,20.0,30.36,NNW,329,2.0,7.0,78,0.00,,---,0.00,232.00,VWS V14.00,2013-01-26 15:12:00,
2013-01-26 10:17:00,26.2,20.0,30.36,NNW,331,1.0,4.0,77,0.00,,---,0.00,290.00,VWS V14.00,2013-01-26 15:17:00,
2013-01-26 10:22:00,26.5,20.0,30.36,NW,326,1.0,5.0,76,0.00,,---,0.00,329.00,VWS V14.00,2013-01-26 15:22:00,
2013-01-26 10:27:00,26.7,19.9,30.37,NNW,332,1.0,6.0,75,0.00,,---,0.00,357.00,VWS V14.00,2013-01-26 15:27:00,
2013-01-26 10:32:00,26.9,20.0,30.37,NNW,337,4.0,6.0,75,0.00,,---,0.00,376.00,VWS V14.00,2013-01-26 15:32:00,
2013-01-26 10:37:00,27.0,20.5,30.37,NNW,333,2.0,5.0,76,0.00,,---,0.00,394.00,VWS V14.00,2013-01-26 15:37:00,
2013-01-26 10:42:00,27.2,20.6,30.37,NNW,341,1.0,6.0,76,0.00,,---,0.00,411.00,VWS V14.00,2013-01-26 15:42:00,
2013-01-26 10:47:00,27.6,20.7,30.37,NNW,333,2.0,6.0,75,0.00,,---,0.00,424.00,VWS V14.00,2013-01-26 15:47:00,
2013-01-26 10:52:00,27.9,20.4,30.38,North,355,4.0,9.0,73,0.00,,---,0.00,274.00,VWS V14.00,2013-01-26 15:52:00,
2013-01-26 10:57:00,28.0,20.8,30.38,NNE,12,2.0,5.0,74,0.00,,---,0.00,123.00,VWS V14.00,2013-01-26 15:57:00,
2013-01-26 11:02:00,28.2,21.0,30.37,NNW,336,5.0,7.0,74,0.00,,---,0.00,162.00,VWS V14.00,2013-01-26 16:02:00,
2013-01-26 11:07:00,28.5,21.0,30.37,North,349,7.0,7.0,73,0.00,,---,0.00,244.00,VWS V14.00,2013-01-26 16:07:00,
2013-01-26 11:12:00,29.0,21.8,30.38,North,355,5.0,5.0,74,0.00,,---,0.00,264.00,VWS V14.00,2013-01-26 16:12:00,
2013-01-26 11:17:00,29.0,21.8,30.38,NNW,348,4.0,5.0,74,0.00,,---,0.00,251.00,VWS V14.00,2013-01-26 16:17:00,
2013-01-26 11:22:00,28.7,21.1,30.38,NNW,344,5.0,7.0,73,0.00,,---,0.00,269.00,VWS V14.00,2013-01-26 16:22:00,
2013-01-26 11:27:00,28.3,21.1,30.38,North,355,3.0,5.0,74,0.00,,---,0.00,267.00,VWS V14.00,2013-01-26 16:27:00,
2013-01-26 11:32:00,28.3,21.4,30.39,NNW,338,5.0,7.0,75,0.00,,---,0.00,265.00,VWS V14.00,2013-01-26 16:32:00,
2013-01-26 11:37:00,28.2,21.3,30.39,NNW,340,1.0,6.0,75,0.00,,---,0.00,287.00,VWS V14.00,2013-01-26 16:37:00,
2013-01-26 11:42:00,28.2,21.6,30.39,NNW,336,2.0,8.0,76,0.00,,---,0.00,276.00,VWS V14.00,2013-01-26 16:42:00,
2013-01-26 11:47:00,28.4,22.1,30.39,NNE,19,2.0,5.0,77,0.00,,---,0.00,302.00,VWS V14.00,2013-01-26 16:47:00,
2013-01-26 11:52:00,28.5,21.6,30.39,North,360,2.0,5.0,75,0.00,,---,0.00,285.00,VWS V14.00,2013-01-26 16:52:00,
2013-01-26 11:57:00,28.6,21.7,30.39,NNW,339,6.0,6.0,75,0.00,,---,0.00,288.00,VWS V14.00,2013-01-26 16:57:00,
2013-01-26 12:02:00,28.5,21.6,30.39,NNW,348,2.0,6.0,75,0.00,,---,0.00,262.00,VWS V14.00,2013-01-26 17:02:00,
2013-01-26 12:07:00,28.7,21.8,30.39,North,350,1.0,4.0,75,0.00,,---,0.00,339.00,VWS V14.00,2013-01-26 17:07:00,
2013-01-26 12:12:00,28.9,22.0,30.39,NNE,31,1.0,5.0,75,0.00,,---,0.00,320.00,VWS V14.00,2013-01-26 17:12:00,
2013-01-26 12:17:00,29.2,22.3,30.39,NNE,24,1.0,2.0,75,0.00,,---,0.00,297.00,VWS V14.00,2013-01-26 17:17:00,
2013-01-26 12:22:00,29.3,21.7,30.38,NNE,13,3.0,6.0,73,0.00,,---,0.00,304.00,VWS V14.00,2013-01-26 17:22:00,
2013-01-26 12:27:00,29.3,22.1,30.38,North,350,4.0,6.0,74,0.00,,---,0.00,243.00,VWS V14.00,2013-01-26 17:27:00,
2013-01-26 12:32:00,29.4,21.8,30.38,North,351,4.0,7.0,73,0.00,,---,0.00,193.00,VWS V14.00,2013-01-26 17:32:00,
2013-01-26 12:37:00,29.3,21.4,30.37,ESE,111,2.0,6.0,72,0.00,,---,0.00,144.00,VWS V14.00,2013-01-26 17:37:00,
2013-01-26 12:42:00,29.6,22.0,30.37,NE,40,6.0,6.0,73,0.00,,---,0.00,142.00,VWS V14.00,2013-01-26 17:42:00,
2013-01-26 12:47:00,29.7,21.5,30.37,ENE,61,1.0,7.0,71,0.00,,---,0.00,148.00,VWS V14.00,2013-01-26 17:47:00,
2013-01-26 12:53:00,29.8,21.9,30.37,NNW,333,4.0,4.0,72,0.00,,---,0.00,214.00,VWS V14.00,2013-01-26 17:53:00,
2013-01-26 12:58:00,30.0,22.1,30.37,ESE,106,4.0,5.0,72,0.00,,---,0.00,364.00,VWS V14.00,2013-01-26 17:58:00,
2013-01-26 13:03:00,30.3,22.7,30.36,NW,320,4.0,7.0,73,0.00,,---,0.00,566.00,VWS V14.00,2013-01-26 18:03:00,
2013-01-26 13:08:00,30.4,21.8,30.36,NE,37,3.0,7.0,70,0.00,,---,0.00,657.00,VWS V14.00,2013-01-26 18:08:00,
2013-01-26 13:13:00,30.3,21.7,30.36,East,85,2.0,6.0,70,0.00,,---,0.00,267.00,VWS V14.00,2013-01-26 18:13:00,
2013-01-26 13:18:00,30.4,21.8,30.36,NNW,341,8.0,8.0,70,0.00,,---,0.00,271.00,VWS V14.00,2013-01-26 18:18:00,
2013-01-26 13:23:00,30.5,22.2,30.36,NNE,25,3.0,5.0,71,0.00,,---,0.00,564.00,VWS V14.00,2013-01-26 18:23:00,
2013-01-26 13:28:00,30.5,21.6,30.36,NE,34,1.0,7.0,69,0.00,,---,0.00,253.00,VWS V14.00,2013-01-26 18:28:00,
2013-01-26 13:33:00,30.6,22.0,30.36,NNE,27,1.0,6.0,70,0.00,,---,0.00,635.00,VWS V14.00,2013-01-26 18:33:00,
2013-01-26 13:38:00,30.9,22.3,30.36,North,355,5.0,5.0,70,0.00,,---,0.00,557.00,VWS V14.00,2013-01-26 18:38:00,
2013-01-26 13:43:00,31.1,21.8,30.36,NNW,346,4.0,5.0,68,0.00,,---,0.00,401.00,VWS V14.00,2013-01-26 18:43:00,
2013-01-26 13:48:00,31.1,21.8,30.36,NNW,340,2.0,5.0,68,0.00,,---,0.00,679.00,VWS V14.00,2013-01-26 18:48:00,
2013-01-26 13:53:00,31.0,22.0,30.36,North,355,0.0,2.0,69,0.00,,---,0.00,204.00,VWS V14.00,2013-01-26 18:53:00,
2013-01-26 13:58:00,30.9,21.9,30.36,North,355,2.0,3.0,69,0.00,,---,0.00,225.00,VWS V14.00,2013-01-26 18:58:00,
2013-01-26 14:03:00,30.8,21.5,30.36,SE,140,2.0,3.0,68,0.00,,---,0.00,258.00,VWS V14.00,2013-01-26 19:03:00,
2013-01-26 14:08:00,30.9,21.9,30.36,SE,134,0.0,4.0,69,0.00,,---,0.00,360.00,VWS V14.00,2013-01-26 19:08:00,
2013-01-26 14:13:00,31.1,22.1,30.36,North,5,4.0,5.0,69,0.00,,---,0.00,227.00,VWS V14.00,2013-01-26 19:13:00,
2013-01-26 14:18:00,31.0,21.7,30.35,NNW,348,0.0,5.0,68,0.00,,---,0.00,172.00,VWS V14.00,2013-01-26 19:18:00,
2013-01-26 14:23:00,30.9,21.9,30.36,NNW,337,2.0,4.0,69,0.00,,---,0.00,162.00,VWS V14.00,2013-01-26 19:23:00,
2013-01-26 14:28:00,30.7,21.8,30.36,NW,325,0.0,4.0,69,0.00,,---,0.00,162.00,VWS V14.00,2013-01-26 19:28:00,
2013-01-26 14:33:00,30.8,21.9,30.36,NW,323,2.0,3.0,69,0.00,,---,0.00,482.00,VWS V14.00,2013-01-26 19:33:00,
2013-01-26 14:38:00,31.0,21.7,30.36,East,96,4.0,4.0,68,0.00,,---,0.00,367.00,VWS V14.00,2013-01-26 19:38:00,
2013-01-26 14:43:00,31.2,21.5,30.36,NE,51,1.0,3.0,67,0.00,,---,0.00,494.00,VWS V14.00,2013-01-26 19:43:00,
2013-01-26 14:48:00,31.6,22.3,30.36,WSW,246,1.0,4.0,68,0.00,,---,0.00,496.00,VWS V14.00,2013-01-26 19:48:00,
2013-01-26 14:53:00,32.3,22.9,30.36,WNW,296,7.0,8.0,68,0.00,,---,0.00,494.00,VWS V14.00,2013-01-26 19:53:00,
2013-01-26 14:58:00,32.5,22.4,30.36,West,271,1.0,4.0,66,0.00,,---,0.00,464.00,VWS V14.00,2013-01-26 19:58:00,
2013-01-26 15:03:00,32.8,22.3,30.37,West,262,4.0,6.0,65,0.00,,---,0.00,457.00,VWS V14.00,2013-01-26 20:03:00,
2013-01-26 15:08:00,32.9,22.4,30.37,West,267,4.0,6.0,65,0.00,,---,0.00,446.00,VWS V14.00,2013-01-26 20:08:00,
2013-01-26 15:13:00,33.0,22.5,30.37,WNW,296,7.0,9.0,65,0.00,,---,0.00,446.00,VWS V14.00,2013-01-26 20:13:00,
2013-01-26 15:18:00,32.8,22.7,30.37,West,261,1.0,6.0,66,0.00,,---,0.00,399.00,VWS V14.00,2013-01-26 20:18:00,
2013-01-26 15:23:00,32.9,22.8,30.37,NNW,333,4.0,5.0,66,0.00,,---,0.00,330.00,VWS V14.00,2013-01-26 20:23:00,
2013-01-26 15:28:00,33.0,22.5,30.37,NE,51,4.0,5.0,65,0.00,,---,0.00,417.00,VWS V14.00,2013-01-26 20:28:00,
2013-01-26 15:33:00,33.2,22.7,30.38,NE,53,0.0,1.0,65,0.00,,---,0.00,404.00,VWS V14.00,2013-01-26 20:33:00,
2013-01-26 15:38:00,33.4,22.2,30.38,NW,309,0.0,8.0,63,0.00,,---,0.00,388.00,VWS V14.00,2013-01-26 20:38:00,
2013-01-26 15:43:00,33.4,22.5,30.38,NW,320,6.0,6.0,64,0.00,,---,0.00,346.00,VWS V14.00,2013-01-26 20:43:00,
2013-01-26 15:48:00,33.3,22.1,30.38,SE,128,0.0,6.0,63,0.00,,---,0.00,329.00,VWS V14.00,2013-01-26 20:48:00,
2013-01-26 15:53:00,33.5,22.6,30.38,NW,320,5.0,6.0,64,0.00,,---,0.00,330.00,VWS V14.00,2013-01-26 20:53:00,
2013-01-26 15:58:00,33.4,22.2,30.38,NNW,331,2.0,5.0,63,0.00,,---,0.00,318.00,VWS V14.00,2013-01-26 20:58:00,
2013-01-26 16:03:00,33.2,22.4,30.38,NW,321,1.0,8.0,64,0.00,,---,0.00,304.00,VWS V14.00,2013-01-26 21:03:00,
2013-01-26 16:08:00,33.2,22.0,30.38,NNW,331,0.0,4.0,63,0.00,,---,0.00,290.00,VWS V14.00,2013-01-26 21:08:00,
2013-01-26 16:13:00,33.5,22.3,30.39,NNW,336,1.0,1.0,63,0.00,,---,0.00,276.00,VWS V14.00,2013-01-26 21:13:00,
2013-01-26 16:18:00,33.7,22.1,30.39,North,355,0.0,4.0,62,0.00,,---,0.00,251.00,VWS V14.00,2013-01-26 21:18:00,
2013-01-26 16:23:00,33.5,22.3,30.39,NW,313,1.0,6.0,63,0.00,,---,0.00,244.00,VWS V14.00,2013-01-26 21:23:00,
2013-01-26 16:28:00,33.4,22.2,30.39,NNE,24,0.0,4.0,63,0.00,,---,0.00,230.00,VWS V14.00,2013-01-26 21:28:00,
2013-01-26 16:33:00,33.5,21.9,30.39,NNW,343,2.0,7.0,62,0.00,,---,0.00,214.00,VWS V14.00,2013-01-26 21:33:00,
2013-01-26 16:38:00,33.4,22.2,30.39,NNW,340,0.0,5.0,63,0.00,,---,0.00,197.00,VWS V14.00,2013-01-26 21:38:00,
2013-01-26 16:43:00,33.5,22.3,30.39,NW,323,1.0,3.0,63,0.00,,---,0.00,176.00,VWS V14.00,2013-01-26 21:43:00,
2013-01-26 16:48:00,33.4,21.8,30.39,NNW,348,1.0,6.0,62,0.00,,---,0.00,160.00,VWS V14.00,2013-01-26 21:48:00,
2013-01-26 16:53:00,33.2,21.6,30.39,NNW,348,0.0,4.0,62,0.00,,---,0.00,142.00,VWS V14.00,2013-01-26 21:53:00,
2013-01-26 16:58:00,33.2,22.0,30.39,North,355,0.0,4.0,63,0.00,,---,0.00,123.00,VWS V14.00,2013-01-26 21:58:00,
2013-01-26 17:03:00,33.1,21.5,30.39,NNE,17,4.0,4.0,62,0.00,,---,0.00,105.00,VWS V14.00,2013-01-26 22:03:00,
2013-01-26 17:08:00,33.0,21.8,30.39,NNE,13,0.0,2.0,63,0.00,,---,0.00,93.00,VWS V14.00,2013-01-26 22:08:00,
2013-01-26 17:13:00,33.0,21.8,30.39,NNE,13,0.0,2.0,63,0.00,,---,0.00,74.00,VWS V14.00,2013-01-26 22:13:00,
2013-01-26 17:18:00,32.9,21.7,30.39,NNE,13,2.0,2.0,63,0.00,,---,0.00,63.00,VWS V14.00,2013-01-26 22:18:00,
2013-01-26 17:23:00,32.8,21.6,30.39,NNE,13,1.0,4.0,63,0.00,,---,0.00,42.00,VWS V14.00,2013-01-26 22:23:00,
2013-01-26 17:28:00,32.7,21.1,30.40,NNE,13,0.0,2.0,62,0.00,,---,0.00,33.00,VWS V14.00,2013-01-26 22:28:00,
2013-01-26 17:33:00,32.6,21.4,30.40,NNE,13,0.0,0.0,63,0.01,,---,0.01,25.00,VWS V14.00,2013-01-26 22:33:00,
2013-01-26 17:38:00,32.4,21.2,30.40,NNE,13,0.0,2.0,63,0.01,,---,0.01,16.00,VWS V14.00,2013-01-26 22:38:00,
2013-01-26 17:43:00,32.2,21.0,30.41,NNE,13,0.0,2.0,63,0.01,,---,0.01,12.00,VWS V14.00,2013-01-26 22:43:00,
2013-01-26 17:48:00,32.0,20.9,30.40,NNE,13,0.0,1.0,63,0.01,,---,0.01,7.00,VWS V14.00,2013-01-26 22:48:00,
2013-01-26 17:53:00,31.7,20.6,30.40,NNE,13,0.0,0.0,63,0.01,,---,0.01,5.00,VWS V14.00,2013-01-26 22:53:00,
2013-01-26 17:58:00,31.4,20.3,30.41,NNE,13,0.0,0.0,63,0.01,,---,0.01,0.00,VWS V14.00,2013-01-26 22:58:00,
2013-01-26 18:03:00,31.2,20.5,30.41,NNE,13,0.0,0.0,64,0.01,,---,0.01,0.00,VWS V14.00,2013-01-26 23:03:00,
2013-01-26 18:08:00,31.0,20.3,30.41,NNE,13,0.0,0.0,64,0.01,,---,0.01,0.00,VWS V14.00,2013-01-26 23:08:00,
2013-01-26 18:13:00,30.7,20.3,30.41,NNE,13,0.0,0.0,65,0.01,,---,0.01,0.00,VWS V14.00,2013-01-26 23:13:00,
2013-01-26 18:18:00,30.5,20.1,30.41,NNE,13,0.0,0.0,65,0.01,,---,0.01,0.00,VWS V14.00,2013-01-26 23:18:00,
2013-01-26 18:23:00,30.2,19.9,30.40,NNE,17,1.0,4.0,65,0.01,,---,0.01,0.00,VWS V14.00,2013-01-26 23:23:00,
2013-01-26 18:28:00,30.0,20.0,30.40,NNE,15,0.0,0.0,66,0.01,,---,0.01,0.00,VWS V14.00,2013-01-26 23:28:00,
2013-01-26 18:33:00,29.7,20.1,30.40,NNE,16,0.0,0.0,67,0.01,,---,0.01,0.00,VWS V14.00,2013-01-26 23:33:00,
2013-01-26 18:38:00,29.5,19.9,30.41,NNE,19,0.0,2.0,67,0.00,,---,0.01,0.00,VWS V14.00,2013-01-26 23:38:00,
2013-01-26 18:44:00,29.3,20.1,30.41,NNE,22,0.0,0.0,68,0.00,,---,0.01,0.00,VWS V14.00,2013-01-26 23:44:00,
2013-01-26 18:49:00,29.2,20.3,30.41,NNE,22,0.0,0.0,69,0.00,,---,0.01,0.00,VWS V14.00,2013-01-26 23:49:00,
2013-01-26 18:54:00,29.1,20.2,30.42,NNE,23,0.0,1.0,69,0.00,,---,0.01,0.00,VWS V14.00,2013-01-26 23:54:00,
2013-01-26 18:59:00,29.0,20.5,30.42,NNE,23,2.0,2.0,70,0.00,,---,0.01,0.00,VWS V14.00,2013-01-26 23:59:00,
2013-01-26 19:04:00,28.8,20.3,30.42,NNE,23,0.0,2.0,70,0.00,,---,0.01,0.00,VWS V14.00,2013-01-27 00:04:00,
2013-01-26 19:09:00,28.6,20.1,30.42,NNE,23,0.0,1.0,70,0.00,,---,0.01,0.00,VWS V14.00,2013-01-27 00:09:00,
2013-01-26 19:14:00,28.5,20.3,30.42,NE,38,0.0,2.0,71,0.00,,---,0.01,0.00,VWS V14.00,2013-01-27 00:14:00,
2013-01-26 19:19:00,28.3,20.1,30.42,ENE,69,0.0,2.0,71,0.00,,---,0.01,0.00,VWS V14.00,2013-01-27 00:19:00,
2013-01-26 19:24:00,28.2,20.4,30.42,ENE,69,0.0,1.0,72,0.00,,---,0.01,0.00,VWS V14.00,2013-01-27 00:24:00,
2013-01-26 19:29:00,28.1,20.2,30.42,ENE,66,0.0,1.0,72,0.00,,---,0.01,0.00,VWS V14.00,2013-01-27 00:29:00,
2013-01-26 19:34:00,28.0,20.2,30.43,ENE,66,0.0,1.0,72,0.00,,---,0.01,0.00,VWS V14.00,2013-01-27 00:34:00,
2013-01-26 19:39:00,28.0,20.2,30.43,ENE,66,0.0,1.0,72,0.00,,---,0.01,0.00,VWS V14.00,2013-01-27 00:39:00,
2013-01-26 19:44:00,28.0,20.5,30.43,East,101,0.0,7.0,73,0.00,,---,0.01,0.00,VWS V14.00,2013-01-27 00:44:00,
2013-01-26 19:49:00,27.9,20.4,30.43,ESE,108,0.0,2.0,73,0.00,,---,0.01,0.00,VWS V14.00,2013-01-27 00:49:00,
2013-01-26 19:54:00,27.8,20.3,30.43,ESE,108,0.0,1.0,73,0.00,,---,0.01,0.00,VWS V14.00,2013-01-27 00:54:00,
2013-01-26 19:59:00,27.5,20.0,30.43,ESE,114,0.0,3.0,73,0.00,,---,0.01,0.00,VWS V14.00,2013-01-27 00:59:00,
2013-01-26 20:04:00,27.3,20.1,30.44,ESE,114,0.0,1.0,74,0.00,,---,0.01,0.00,VWS V14.00,2013-01-27 01:04:00,
2013-01-26 20:09:00,27.2,20.0,30.44,ESE,114,0.0,1.0,74,0.00,,---,0.01,0.00,VWS V14.00,2013-01-27 01:09:00,
2013-01-26 20:14:00,27.1,19.9,30.44,ESE,114,0.0,0.0,74,0.00,,---,0.01,0.00,VWS V14.00,2013-01-27 01:14:00,
2013-01-26 20:19:00,26.9,20.0,30.44,ESE,114,0.0,4.0,75,0.00,,---,0.01,0.00,VWS V14.00,2013-01-27 01:19:00,
2013-01-26 20:24:00,26.9,20.0,30.45,ESE,102,1.0,4.0,75,0.00,,---,0.01,0.00,VWS V14.00,2013-01-27 01:24:00,
2013-01-26 20:29:00,26.9,20.0,30.45,ESE,117,1.0,2.0,75,0.00,,---,0.01,0.00,VWS V14.00,2013-01-27 01:29:00,
2013-01-26 20:34:00,26.9,20.0,30.45,ESE,109,1.0,2.0,75,0.00,,---,0.01,0.00,VWS V14.00,2013-01-27 01:34:00,
2013-01-26 20:39:00,26.9,20.0,30.45,NNE,27,2.0,2.0,75,0.00,,---,0.01,0.00,VWS V14.00,2013-01-27 01:39:00,
2013-01-26 20:44:00,26.8,20.3,30.45,ESE,106,0.0,5.0,76,0.00,,---,0.01,0.00,VWS V14.00,2013-01-27 01:44:00,
2013-01-26 20:49:00,26.8,20.0,30.46,ENE,68,0.0,2.0,75,0.00,,---,0.01,0.00,VWS V14.00,2013-01-27 01:49:00,
2013-01-26 20:54:00,26.6,19.8,30.46,ENE,67,0.0,2.0,75,0.00,,---,0.01,0.00,VWS V14.00,2013-01-27 01:54:00,
2013-01-26 20:59:00,26.5,20.0,30.46,ENE,67,0.0,2.0,76,0.00,,---,0.01,0.00,VWS V14.00,2013-01-27 01:59:00,
2013-01-26 21:04:00,26.3,19.8,30.46,ENE,67,0.0,0.0,76,0.00,,---,0.01,0.00,VWS V14.00,2013-01-27 02:04:00,
2013-01-26 21:09:00,26.1,19.6,30.46,East,88,2.0,2.0,76,0.00,,---,0.01,0.00,VWS V14.00,2013-01-27 02:09:00,
2013-01-26 21:14:00,26.0,19.8,30.46,ESE,103,1.0,4.0,77,0.00,,---,0.01,0.00,VWS V14.00,2013-01-27 02:14:00,
2013-01-26 21:19:00,25.9,19.7,30.46,ESE,103,2.0,2.0,77,0.00,,---,0.01,0.00,VWS V14.00,2013-01-27 02:19:00,
2013-01-26 21:24:00,25.8,19.6,30.47,ESE,105,0.0,3.0,77,0.00,,---,0.01,0.00,VWS V14.00,2013-01-27 02:24:00,
2013-01-26 21:29:00,25.8,19.6,30.46,ESE,123,3.0,5.0,77,0.00,,---,0.01,0.00,VWS V14.00,2013-01-27 02:29:00,
2013-01-26 21:34:00,25.8,19.6,30.46,ESE,105,0.0,5.0,77,0.00,,---,0.01,0.00,VWS V14.00,2013-01-27 02:34:00,
2013-01-26 21:39:00,25.6,19.4,30.47,ESE,114,0.0,5.0,77,0.00,,---,0.01,0.00,VWS V14.00,2013-01-27 02:39:00,
2013-01-26 21:44:00,25.6,19.4,30.47,East,101,6.0,6.0,77,0.00,,---,0.01,0.00,VWS V14.00,2013-01-27 02:44:00,
2013-01-26 21:49:00,25.6,19.4,30.47,ESE,113,0.0,4.0,77,0.00,,---,0.01,0.00,VWS V14.00,2013-01-27 02:49:00,
2013-01-26 21:54:00,25.6,19.4,30.47,ESE,111,2.0,5.0,77,0.00,,---,0.01,0.00,VWS V14.00,2013-01-27 02:54:00,
2013-01-26 21:59:00,25.6,19.4,30.46,ESE,105,3.0,5.0,77,0.00,,---,0.01,0.00,VWS V14.00,2013-01-27 02:59:00,
2013-01-26 22:04:00,25.5,19.3,30.46,East,98,3.0,6.0,77,0.00,,---,0.01,0.00,VWS V14.00,2013-01-27 03:04:00,
2013-01-26 22:09:00,25.5,19.3,30.46,ESE,120,0.0,7.0,77,0.00,,---,0.01,0.00,VWS V14.00,2013-01-27 03:09:00,
2013-01-26 22:14:00,25.4,19.5,30.46,ESE,117,2.0,2.0,78,0.00,,---,0.01,0.00,VWS V14.00,2013-01-27 03:14:00,
2013-01-26 22:19:00,25.3,19.4,30.47,ESE,117,1.0,3.0,78,0.00,,---,0.01,0.00,VWS V14.00,2013-01-27 03:19:00,
2013-01-26 22:24:00,25.2,19.3,30.47,ESE,117,1.0,3.0,78,0.00,,---,0.01,0.00,VWS V14.00,2013-01-27 03:24:00,
2013-01-26 22:29:00,25.2,19.3,30.46,ESE,108,3.0,6.0,78,0.00,,---,0.01,0.00,VWS V14.00,2013-01-27 03:29:00,
2013-01-26 22:34:00,25.2,19.3,30.46,SE,128,5.0,6.0,78,0.00,,---,0.01,0.00,VWS V14.00,2013-01-27 03:34:00,
2013-01-26 22:39:00,25.2,19.6,30.46,ESE,119,2.0,4.0,79,0.00,,---,0.01,0.00,VWS V14.00,2013-01-27 03:39:00,
2013-01-26 22:44:00,25.1,19.5,30.46,ESE,117,2.0,4.0,79,0.00,,---,0.01,0.00,VWS V14.00,2013-01-27 03:44:00,
2013-01-26 22:49:00,24.9,19.3,30.46,ESE,118,2.0,4.0,79,0.00,,---,0.01,0.00,VWS V14.00,2013-01-27 03:49:00,
2013-01-26 22:54:00,24.9,19.3,30.47,ESE,115,1.0,4.0,79,0.00,,---,0.01,0.00,VWS V14.00,2013-01-27 03:54:00,
2013-01-26 22:59:00,24.9,19.6,30.46,ESE,115,2.0,4.0,80,0.00,,---,0.01,0.00,VWS V14.00,2013-01-27 03:59:00,
2013-01-26 23:04:00,24.9,19.6,30.46,East,97,2.0,6.0,80,0.00,,---,0.01,0.00,VWS V14.00,2013-01-27 04:04:00,
2013-01-26 23:09:00,24.9,19.6,30.47,East,97,2.0,2.0,80,0.00,,---,0.01,0.00,VWS V14.00,2013-01-27 04:09:00,
2013-01-26 23:14:00,24.8,19.5,30.47,ESE,113,1.0,5.0,80,0.00,,---,0.01,0.00,VWS V14.00,2013-01-27 04:14:00,
2013-01-26 23:19:00,24.8,19.5,30.47,ESE,117,2.0,5.0,80,0.00,,---,0.01,0.00,VWS V14.00,2013-01-27 04:19:00,
2013-01-26 23:24:00,24.7,19.7,30.47,ESE,114,3.0,4.0,81,0.00,,---,0.01,0.00,VWS V14.00,2013-01-27 04:24:00,
2013-01-26 23:29:00,24.7,19.7,30.47,ESE,113,2.0,6.0,81,0.00,,---,0.01,0.00,VWS V14.00,2013-01-27 04:29:00,
2013-01-26 23:34:00,24.6,19.6,30.47,ESE,108,1.0,4.0,81,0.00,,---,0.01,0.00,VWS V14.00,2013-01-27 04:34:00,
2013-01-26 23:39:00,24.5,19.5,30.48,ESE,102,1.0,5.0,81,0.00,,---,0.01,0.00,VWS V14.00,2013-01-27 04:39:00,
2013-01-26 23:44:00,24.5,19.5,30.47,ESE,111,4.0,5.0,81,0.00,,---,0.01,0.00,VWS V14.00,2013-01-27 04:44:00,
2013-01-26 23:49:00,24.6,19.6,30.47,ESE,108,2.0,5.0,81,0.00,,---,0.01,0.00,VWS V14.00,2013-01-27 04:49:00,
2013-01-26 23:54:00,24.5,19.8,30.47,ESE,112,2.0,5.0,82,0.00,,---,0.01,0.00,VWS V14.00,2013-01-27 04:54:00,
2013-01-26 23:59:00,24.5,19.5,30.47,ESE,113,2.0,6.0,81,0.00,,---,0.00,0.00,VWS V14.00,2013-01-27 04:59:00,